EW6113 Weather Reports


time (UTC)temp
C
wind
direction
speed
KPH
gust
KPH
rain 1hr
cm
rain 24hr
cm
rain mn
cm
humidity
%
barometer
mb
20260503211511 17 124 12.9 22.5 0.00 0.00 0.00 56 1013.9
20260503210008 17 121 14.5 24.1 0.00 0.00 0.00 60 1013.9
20260503204506 17 128 17.7 25.7 0.00 0.00 0.00 62 1013.9
20260503203010 16 115 12.9 24.1 0.00 0.00 0.00 65 1014.0
20260503201505 17 96 14.5 25.7 0.00 0.00 0.00 65 1014.1
20260503200008 16 77 11.3 30.6 0.00 0.00 0.00 67 1014.1
20260503194504 16 116 20.9 30.6 0.00 0.00 0.00 66 1014.2
20260503193002 16 81 11.3 25.7 0.00 0.00 0.00 66 1014.4
20260503191608 16 90 12.9 22.5 0.00 0.00 0.00 62 1014.4
20260503190106 16 100 11.3 22.5 0.00 0.00 0.00 65 1014.5
20260503184559 16 84 11.3 19.3 0.00 0.00 0.00 67 1014.6
20260503183115 16 76 6.4 19.3 0.00 0.00 0.00 68 1014.7
20260503181620 16 90 12.9 24.1 0.00 0.00 0.00 67 1014.8
20260503180059 16 111 8.0 14.5 0.00 0.00 0.00 67 1014.7
20260503174552 15 104 8.0 14.5 0.00 0.00 0.00 71 1014.7
20260503173056 15 222 0.0 4.8 0.00 0.00 0.00 75 1014.7
20260503171547 14 80 1.6 9.7 0.00 0.00 0.00 76 1014.7
20260503081558 12 74 0.0 1.6 0.00 0.00 0.00 86 1013.0
20260503080106 12 76 1.6 4.8 0.00 0.00 0.00 86 1013.1
20260503071604 12 86 1.6 4.8 0.00 0.00 0.00 89 1012.9
20260503070110 12 81 3.2 9.7 0.00 0.00 0.00 90 1012.8
20260503060113 12 44 4.8 11.3 0.00 0.00 0.00 90 1012.7
20260503054548 12 103 3.2 6.4 0.00 0.00 0.00 90 1012.5
20260503053049 12 73 4.8 16.1 0.00 0.00 0.00 90 1012.5
20260503051549 12 111 6.4 14.5 0.00 0.00 0.00 90 1012.3
20260503050046 12 110 1.6 12.9 0.00 0.00 0.00 89 1012.3
20260503044545 12 101 3.2 14.5 0.00 0.00 0.00 88 1012.4
20260503043045 12 90 3.2 11.3 0.00 0.00 0.00 88 1012.3
20260503041544 12 85 4.8 12.9 0.00 0.00 0.00 87 1012.2
20260503040043 13 107 6.4 11.3 0.00 0.00 0.00 86 1012.2
20260503034546 13 106 4.8 11.3 0.00 0.00 0.00 86 1012.2
20260503033048 13 129 3.2 14.5 0.00 0.00 0.00 86 1012.0
20260503031541 13 97 8.0 14.5 0.00 0.00 0.00 86 1012.0
20260503030040 13 120 3.2 14.5 0.00 0.00 0.00 86 1011.9
20260503024540 13 107 4.8 12.9 0.00 0.00 0.00 86 1011.7
20260503023040 13 97 8.0 16.1 0.00 0.00 0.00 85 1011.5
20260503021539 13 115 8.0 14.5 0.00 0.00 0.00 84 1011.6
20260503020038 13 67 6.4 16.1 0.00 0.00 0.00 83 1011.7
20260503014536 13 173 4.8 17.7 0.00 0.00 0.00 82 1011.7
20260503013046 14 67 6.4 19.3 0.00 0.00 0.00 80 1011.7
20260503011538 15 106 9.7 17.7 0.00 0.00 0.00 78 1011.8
20260503010042 14 92 12.9 24.1 0.00 0.00 0.00 79 1011.9
20260503004534 15 134 11.3 19.3 0.00 0.00 0.00 79 1011.9
20260503003034 15 82 11.3 19.3 0.00 0.00 0.00 77 1011.9
20260503001532 15 90 11.3 24.1 0.00 0.00 0.00 76 1011.9
20260503000031 15 110 11.3 24.1 0.00 0.00 0.00 74 1011.9
20260502234530 15 33 9.7 20.9 0.00 0.00 0.00 74 1011.9
20260502233028 16 45 11.3 20.9 0.00 0.00 0.00 74 1012.0
20260502231526 15 78 14.5 24.1 0.00 0.00 0.00 75 1012.2
20260502230026 15 91 11.3 22.5 0.00 0.00 0.00 75 1012.3
20260502224520 15 119 8.0 24.1 0.00 0.00 0.00 78 1012.7
20260502223018 15 136 9.7 24.1 0.00 0.00 0.00 77 1013.0
20260502221518 15 112 11.3 22.5 0.00 0.00 0.00 77 1013.2
20260502220017 15 134 11.3 20.9 0.00 0.00 0.00 77 1013.4
20260502214522 15 63 11.3 20.9 0.00 0.00 0.00 77 1013.6
20260502213015 16 117 12.9 20.9 0.00 0.00 0.00 76 1013.8